This is the latest recevied weather packets stored in our database for station/object SP3PDK-1. If no packets are shown the sender has not sent any weather packets the latest 10 day(s).
| Time | Temp. | Humidity | Pressure | Rain* | Wind** | Luminosity | Snow |
|---|---|---|---|---|---|---|---|
| 1777553654 | 18.89° C | 30% | 1029 hPa | - | - | - | - |
| 1777553053 | 18.33° C | 30% | 1029.3 hPa | - | - | - | - |
| 1777552453 | 17.78° C | 31% | 1029.4 hPa | - | - | - | - |
| 1777551854 | 17.22° C | 31% | 1029.6 hPa | - | - | - | - |
| 1777551254 | 17.22° C | 31% | 1029.7 hPa | - | - | - | - |
| 1777550658 | 17.78° C | 30% | 1029.7 hPa | - | - | - | - |
| 1777550056 | 17.78° C | 29% | 1029.7 hPa | - | - | - | - |
| 1777549458 | 17.22° C | 29% | 1029.8 hPa | - | - | - | - |
| 1777548254 | 18.33° C | 27% | 1030 hPa | - | - | - | - |
| 1777547654 | 17.78° C | 28% | 1030.1 hPa | - | - | - | - |
| 1777547059 | 17.22° C | 29% | 1030.1 hPa | - | - | - | - |
| 1777546453 | 17.22° C | 29% | 1030.1 hPa | - | - | - | - |
| 1777545854 | 16.67° C | 29% | 1030.3 hPa | - | - | - | - |
| 1777545260 | 16.11° C | 28% | 1030.5 hPa | - | - | - | - |
| 1777544059 | 15.56° C | 28% | 1030.5 hPa | - | - | - | - |
| 1777543454 | 16.67° C | 28% | 1030.5 hPa | - | - | - | - |
| 1777542855 | 16.67° C | 28% | 1030.6 hPa | - | - | - | - |
| 1777541653 | 16.11° C | 28% | 1031 hPa | - | - | - | - |
| 1777541054 | 15.56° C | 28% | 1031.1 hPa | - | - | - | - |
| 1777540455 | 15.56° C | 29% | 1031.2 hPa | - | - | - | - |
| 1777539859 | 15.56° C | 29% | 1031.3 hPa | - | - | - | - |
| 1777538653 | 15° C | 31% | 1031.2 hPa | - | - | - | - |
| 1777537454 | 15° C | 30% | 1031.4 hPa | - | - | - | - |
| 1777536258 | 15° C | 31% | 1031.4 hPa | - | - | - | - |
| 1777535654 | 14.44° C | 30% | 1031.5 hPa | - | - | - | - |
* Rain since midnight (hover to see other rain measurements)
** Current wind speed in m/s (hover to see current wind gust speed)